timestamp,surface_pressure_avg,surface_temp_avg,battery_voltage,lat,long
2019-05-05 00:00:00+00:00,367.1229,1.13,13.05,47.84626,-54.09684
2019-05-05 00:10:00+00:00,359.8713,1.1,12.89,47.84626,-54.09684
2019-05-05 00:20:00+00:00,357.0996,1.0,12.97,47.84626,-54.09684
2019-05-05 00:30:00+00:00,355.8264,0.9,12.97,47.84626,-54.09684
2019-05-05 00:40:00+00:00,352.3596,0.9,12.97,47.84626,-54.09684
2019-05-05 00:50:00+00:00,345.7146,1.0,12.97,47.84626,-54.09684
2019-05-05 01:00:00+00:00,336.4213,1.07,12.89,47.84626,-54.09684
2019-05-05 01:10:00+00:00,335.6129,1.06,12.81,47.84626,-54.09684
2019-05-05 01:20:00+00:00,336.1213,1.06,12.89,47.84626,-54.09684
2019-05-05 01:30:00+00:00,330.8864,1.08,12.89,47.84626,-54.09684
2019-05-05 01:40:00+00:00,323.4647,1.1,12.97,47.84626,-54.09684
2019-05-05 01:50:00+00:00,320.5747,1.1,12.97,47.84626,-54.09684
2019-05-05 02:00:00+00:00,317.6263,1.0,12.89,47.84626,-54.09684
2019-05-05 02:10:00+00:00,308.4814,1.0,12.81,47.84626,-54.09684
2019-05-05 02:20:00+00:00,297.8813,1.0,12.89,47.84626,-54.09684
2019-05-05 02:30:00+00:00,290.8831,1.0,12.89,47.84626,-54.09684
2019-05-05 02:40:00+00:00,284.8314,1.0,12.89,47.84626,-54.09684
2019-05-05 02:50:00+00:00,272.9398,1.0,12.97,47.84626,-54.09684
2019-05-05 03:00:00+00:00,262.6948,1.0,12.81,47.84626,-54.09684
2019-05-05 03:10:00+00:00,255.0698,1.0,12.81,47.84626,-54.09684
2019-05-05 03:20:00+00:00,245.8981,1.0,12.89,47.84626,-54.09684
2019-05-05 03:30:00+00:00,232.9648,1.0,12.89,47.84626,-54.09684
2019-05-05 03:40:00+00:00,227.3247,1.0,12.89,47.84626,-54.09684
2019-05-05 03:50:00+00:00,219.9481,1.0,12.89,47.84626,-54.09684
2019-05-05 04:00:00+00:00,207.5948,1.0,12.81,47.84626,-54.09684
2019-05-05 04:10:00+00:00,197.0915,1.0,12.73,47.84626,-54.09684
2019-05-05 04:20:00+00:00,193.8932,1.0,12.81,47.84626,-54.09684
2019-05-05 04:30:00+00:00,189.1515,1.0,12.89,47.84626,-54.09684
2019-05-05 04:40:00+00:00,182.7232,1.07,12.89,47.84626,-54.09684
2019-05-05 04:50:00+00:00,179.5431,1.1,12.89,47.84626,-54.09684
2019-05-05 05:00:00+00:00,177.1031,1.1,12.81,47.84626,-54.09684
2019-05-05 05:10:00+00:00,174.4748,1.1,12.73,47.84626,-54.09684
2019-05-05 05:20:00+00:00,172.9915,1.12,12.81,47.84626,-54.09684
2019-05-05 05:30:00+00:00,174.0881,1.14,12.81,47.84626,-54.09684
2019-05-05 05:40:00+00:00,173.9782,1.2,12.89,47.84626,-54.09684
2019-05-05 05:50:00+00:00,171.9349,1.23,12.89,47.84626,-54.09684
2019-05-05 06:00:00+00:00,174.6098,1.29,12.81,47.84626,-54.09684
2019-05-05 06:10:00+00:00,179.7215,1.3,12.73,47.84626,-54.09684
2019-05-05 06:20:00+00:00,180.8782,1.33,12.81,47.84626,-54.09684
2019-05-05 06:30:00+00:00,178.6498,1.39,12.81,47.84626,-54.09684
2019-05-05 06:40:00+00:00,179.0814,1.4,12.81,47.84626,-54.09684
2019-05-05 06:50:00+00:00,187.8914,1.4,12.81,47.84626,-54.09684
2019-05-05 07:00:00+00:00,197.2465,1.4,12.73,47.84626,-54.09684
2019-05-05 07:10:00+00:00,201.2481,1.42,12.65,47.84626,-54.09684
2019-05-05 07:20:00+00:00,202.2415,1.42,12.73,47.84626,-54.09684
2019-05-05 07:30:00+00:00,207.5281,1.43,12.81,47.84626,-54.09684
2019-05-05 07:40:00+00:00,217.3748,1.4,12.81,47.84626,-54.09684
2019-05-05 07:50:00+00:00,219.7998,1.4,12.81,47.84626,-54.09684
2019-05-05 08:00:00+00:00,218.9998,1.4,12.73,47.84626,-54.09684
2019-05-05 08:10:00+00:00,225.9198,1.4,12.65,47.84626,-54.09684
2019-05-05 08:20:00+00:00,234.9531,1.4,12.73,47.84626,-54.09684
2019-05-05 08:30:00+00:00,236.5714,1.41,12.73,47.84626,-54.09684
2019-05-05 08:40:00+00:00,242.0281,1.47,12.81,47.84626,-54.09684
2019-05-05 08:50:00+00:00,251.8831,1.49,12.81,47.84626,-54.09684
2019-05-05 09:00:00+00:00,257.1764,1.48,12.73,47.84626,-54.09684
2019-05-05 09:10:00+00:00,261.883,1.46,12.65,47.84626,-54.09684
2019-05-05 09:20:00+00:00,271.8047,1.43,12.81,47.84626,-54.09684
2019-05-05 09:30:00+00:00,276.8497,1.44,12.81,47.84626,-54.09684
2019-05-05 09:40:00+00:00,277.5847,1.47,12.89,47.84626,-54.09684
2019-05-05 09:50:00+00:00,281.523,1.49,12.89,47.84626,-54.09684
2019-05-05 10:00:00+00:00,291.2513,1.49,12.81,47.84626,-54.09684
2019-05-05 10:10:00+00:00,297.8397,1.49,12.73,47.84626,-54.09684
2019-05-05 10:20:00+00:00,308.0747,1.49,12.81,47.84626,-54.09684
2019-05-05 10:30:00+00:00,317.068,1.46,12.81,47.84626,-54.09684
2019-05-05 10:40:00+00:00,321.9113,1.4,12.81,47.84626,-54.09684
2019-05-05 10:50:00+00:00,323.028,1.42,12.89,47.84626,-54.09684
2019-05-05 11:00:00+00:00,328.7646,1.4,12.81,47.84626,-54.09684
2019-05-05 11:10:00+00:00,334.5696,1.4,12.73,47.84626,-54.09684
2019-05-05 11:20:00+00:00,336.5945,1.4,12.81,47.84626,-54.09684
2019-05-05 11:30:00+00:00,335.3595,1.41,12.81,47.84626,-54.09684
2019-05-05 11:40:00+00:00,337.5729,1.4,12.89,47.84626,-54.09684
2019-05-05 11:50:00+00:00,338.8713,1.4,12.97,47.84626,-54.09684
2019-05-05 12:00:00+00:00,339.8579,1.4,12.89,47.84626,-54.09684
2019-05-05 12:10:00+00:00,341.0397,1.42,12.81,47.84626,-54.09684
2019-05-05 12:20:00+00:00,342.4162,1.44,12.97,47.84626,-54.09684
2019-05-05 12:30:00+00:00,341.6179,1.45,13.05,47.84626,-54.09684
2019-05-05 12:40:00+00:00,339.5997,1.44,13.13,47.84626,-54.09684
2019-05-05 12:50:00+00:00,336.413,1.46,13.29,47.84626,-54.09684
2019-05-05 13:00:00+00:00,331.3297,1.45,13.29,47.84626,-54.09684
2019-05-05 13:10:00+00:00,328.0914,1.46,13.29,47.84626,-54.09684
2019-05-05 13:20:00+00:00,327.6014,1.48,13.53,47.84626,-54.09684
2019-05-05 13:30:00+00:00,322.9664,1.5,13.76,47.84626,-54.09684
2019-05-05 13:40:00+00:00,319.353,1.5,14.0,47.84626,-54.09684
2019-05-05 13:50:00+00:00,317.6663,1.5,14.08,47.84626,-54.09684
2019-05-05 14:00:00+00:00,308.783,1.58,14.16,47.84626,-54.09684
2019-05-05 14:10:00+00:00,301.2581,1.67,14.24,47.84626,-54.09684
2019-05-05 14:20:00+00:00,297.938,1.6,14.48,47.84626,-54.09684
2019-05-05 14:30:00+00:00,290.7981,1.61,16.63,47.84626,-54.09684
2019-05-05 14:40:00+00:00,279.8547,1.6,14.72,47.84626,-54.09684
2019-05-05 14:50:00+00:00,272.5931,1.6,14.56,47.84626,-54.09684
2019-05-05 15:00:00+00:00,267.5581,1.6,14.48,47.84626,-54.09684
2019-05-05 15:10:00+00:00,258.0247,1.6,14.32,47.84626,-54.09684
2019-05-05 15:20:00+00:00,249.7781,1.55,14.32,47.84626,-54.09684
2019-05-05 15:30:00+00:00,243.3797,1.54,14.32,47.84626,-54.09684
2019-05-05 15:40:00+00:00,234.6714,1.54,14.4,47.84626,-54.09684
2019-05-05 15:50:00+00:00,223.3881,1.54,14.4,47.84626,-54.09684
2019-05-05 16:00:00+00:00,212.6214,1.59,14.32,47.84626,-54.09684
2019-05-05 16:10:00+00:00,206.1864,1.6,14.24,47.84626,-54.09684
2019-05-05 16:20:00+00:00,200.7365,1.6,14.4,47.84626,-54.09684
2019-05-05 16:30:00+00:00,195.9681,1.6,14.48,47.84626,-54.09684
2019-05-05 16:40:00+00:00,193.2214,1.6,14.56,47.84626,-54.09684
2019-05-05 16:50:00+00:00,190.7047,1.64,14.64,47.84626,-54.09684
2019-05-05 17:00:00+00:00,186.5781,1.67,14.48,47.84626,-54.09684
2019-05-05 17:10:00+00:00,182.1765,1.69,14.4,47.84626,-54.09684
2019-05-05 17:20:00+00:00,181.1814,1.7,14.48,47.84626,-54.09684
2019-05-05 17:30:00+00:00,180.2564,1.7,14.4,47.84626,-54.09684
2019-05-05 17:40:00+00:00,179.8481,1.7,14.4,47.84626,-54.09684
2019-05-05 17:50:00+00:00,180.7614,1.75,14.48,47.84626,-54.09684
2019-05-05 18:00:00+00:00,178.5415,1.78,14.32,47.84626,-54.09684
2019-05-05 18:10:00+00:00,178.2748,1.8,14.16,47.84626,-54.09684
2019-05-05 18:20:00+00:00,183.2881,1.8,14.32,47.84626,-54.09684
2019-05-05 18:30:00+00:00,190.5798,1.8,14.32,47.84626,-54.09684
2019-05-05 18:40:00+00:00,195.7998,1.8,14.4,47.84626,-54.09684
2019-05-05 18:50:00+00:00,200.1215,1.82,14.32,47.84626,-54.09684
2019-05-05 19:00:00+00:00,207.3897,1.84,14.24,47.84626,-54.09684
2019-05-05 19:10:00+00:00,213.0031,1.83,14.24,47.84626,-54.09684
2019-05-05 19:20:00+00:00,218.7981,1.85,14.4,47.84626,-54.09684
2019-05-05 19:30:00+00:00,226.9781,1.83,14.48,47.84626,-54.09684
2019-05-05 19:40:00+00:00,231.9614,1.8,14.48,47.84626,-54.09684
2019-05-05 19:50:00+00:00,234.2131,1.8,14.4,47.84626,-54.09684
2019-05-05 20:00:00+00:00,236.6648,1.84,14.32,47.84626,-54.09684
2019-05-05 20:10:00+00:00,242.093,1.86,14.16,47.84626,-54.09684
2019-05-05 20:20:00+00:00,248.8031,1.89,14.24,47.84626,-54.09684
2019-05-05 20:30:00+00:00,254.088,1.9,14.32,47.84626,-54.09684
2019-05-05 20:40:00+00:00,259.2031,1.9,14.24,47.84626,-54.09684
2019-05-05 20:50:00+00:00,267.2581,1.9,14.24,47.84626,-54.09684
2019-05-05 21:00:00+00:00,273.6014,1.96,14.16,47.84626,-54.09684
2019-05-05 21:10:00+00:00,275.5764,1.99,14.0,47.84626,-54.09684
2019-05-05 21:20:00+00:00,280.9581,2.0,14.0,47.84626,-54.09684
2019-05-05 21:30:00+00:00,290.4531,2.0,13.92,47.84626,-54.09684
2019-05-05 21:40:00+00:00,295.5697,2.0,13.92,47.84626,-54.09684
2019-05-05 21:50:00+00:00,295.4714,2.0,13.84,47.84626,-54.09684
2019-05-05 22:00:00+00:00,304.8948,2.0,13.76,47.84626,-54.09684
2019-05-05 22:10:00+00:00,317.4097,1.94,13.6,47.84626,-54.09684
2019-05-05 22:20:00+00:00,323.488,1.9,13.53,47.84626,-54.09684
2019-05-05 22:30:00+00:00,330.8063,1.9,13.53,47.84626,-54.09684
2019-05-05 22:40:00+00:00,341.233,1.9,13.44,47.84626,-54.09684
2019-05-05 22:50:00+00:00,347.0963,1.9,13.44,47.84626,-54.09684
2019-05-05 23:00:00+00:00,351.3463,1.92,13.37,47.84626,-54.09684
2019-05-05 23:10:00+00:00,358.6297,1.95,13.21,47.84626,-54.09684
2019-05-05 23:20:00+00:00,365.1746,1.96,13.21,47.84626,-54.09684
2019-05-05 23:30:00+00:00,364.7963,1.96,13.13,47.84626,-54.09684
2019-05-05 23:40:00+00:00,365.4246,2.0,13.13,47.84626,-54.09684
2019-05-05 23:50:00+00:00,368.4862,2.0,13.13,47.84626,-54.09684
